Participated 3 times
Between 1967 and 1970
Jean-Claude Theilliere, France
Tour de France 2026 starts from Edinburgh, Scotland in

Stats and Facts from
Tour de France.

2026   2025   2024   2023  2022  2021  2020  2019   2018  2017   2016   2015  2014  2013   2012   2011  2010   2009   2008   2007   2006   2005   2004   2003   2002   2001   2000   1999   1998   1997  1996   1995   1994   1993   1992  1991   1990   1989   1988   1987   1986   1985   1984   1983  1982  1981   1980   1979  1978  1977   1976  1975  1974  1973   1972   1971   1970  1969   1968   1967   1966   1965  1964  1963   1962   1961   1960   1959   1958   1957  1956   1955   1954   1953   1952  1951  1950  1949   1948  1947  1939   1938   1937   1936   1935   1934   1933  1932   1931   1930  1929   1928   1927   1926  1925  1924  1923   1922   1921   1920   1919  1914   1913   1912   1911   1910  1909   1908   1907   1906  1905  1904   1903 

Tourstats
Sitemap

After stage 21 - 2026:
 16451 starters.
  5513 different riders.
  689 teams.
  2419 stages.
  470 restdays.
  469752.50 km.
  5946 abandoned riders.

Click map for 2001 route.
Facts from Tour de France 2001
  |   Stages.  |   Stage winners.  |   Days in jerseys.  |   Teams.  |   All riders.  |   All riders by age.  |   All riders from.  |  

  |   Rookies.  |   Withdrawls.  |   Average speed.  |   GC.  |   Polka  |   Green  |   White  |   Summits. (In tour)  |   Miscellaneous.  |  

Stage 11 on July 18th. 2001
Pick a stage:  Pro  1  2  3  4  5  6  7  8  9  10  11  12  13  14  15  16  17  18  19  20  

After stage 11:    François Simon  
  GrenobleChamrousse | Dist: 32.00km. | Winner: Lance Armstrong

Podium
HC  Montée de Chamrousse Lance Armstrongafter32.00 km.


Average speed for all riders in stage:  25,103 km./hr.

1
 Lance Armstrong  US Postal Service01h 07' 27"=28,466  km/h

2
 Jan Ullrich  Deutsche Telekom01h 08' 27"+  00:01:00 =28,050  km/h

3
 Joseba Beloki  O.N.C.E.-Eroski01h 09' 02"+  00:01:35 =27,813  km/h

4  Roberto Laiseka  Euskaltel-Euskadi01h 09' 30"+  00:02:03 =27,626  km/h

5  Óscar Sevilla  Kelme-Costa Blanca01h 09' 51"+  00:02:24 =27,487  km/h

6  Igor González De Galdeano  O.N.C.E.-Eroski01h 09' 58"+  00:02:31 =27,442  km/h

7  Santiago Botero  Kelme-Costa Blanca01h 10' 10"+  00:02:43 =27,363  km/h

8  Christophe Moreau  Festina01h 10' 27"+  00:03:00 =27,253  km/h

9  Sven Montgomery  Francaise Des Jeux01h 10' 34"+  00:03:07 =27,208  km/h

10  Stefano Garzelli  Mapei-Quick Step01h 10' 35"+  00:03:08 =27,202  km/h

11  Didier Rous  Bonjour01h 11' 13"+  00:03:46 =26,960  km/h

12  Alexandre Vinokourov  Deutsche Telekom01h 11' 15"+  00:03:48 =26,947  km/h

13  José Enrique Gutierrez  Kelme-Costa Blanca01h 11' 18"+  00:03:51 =26,928  km/h

14  Iñigo Chaurreau  Euskaltel-Euskadi01h 11' 28"+  00:04:01 =26,866  km/h

15  Iñigo Cuesta  Cofidis Credit Par Telephone01h 11' 30"+  00:04:03 =26,853  km/h

16  Félix Cárdenas  Kelme-Costa Blanca01h 11' 37"+  00:04:10 =26,809  km/h

17  Carlos Sastre  O.N.C.E.-Eroski01h 11' 40"+  00:04:13 =26,791  km/h

18  Laurent Jalabert  CSC-Tiscali01h 11' 46"+  00:04:19 =26,753  km/h

19  Andréas  Klöden  Deutsche Telekom01h 11' 55"+  00:04:28 =26,698  km/h

20  Wladimir Belli  Fassa Bortolo01h 11' 58"+  00:04:31 =26,679  km/h

21  Jonathan Vaughters  Credit Agricole01h 11' 58"+  00:04:31 =26,679  km/h

22  Alberto Lopez  Euskaltel-Euskadi01h 12' 16"+  00:04:49 =26,568  km/h

23  Thomasz Broźyna  ibanesto.com01h 12' 32"+  00:05:05 =26,471  km/h

24  Denis Menchov  ibanesto.com01h 12' 34"+  00:05:07 =26,458  km/h

25  Bradley McGee  Francaise Des Jeux01h 12' 36"+  00:05:09 =26,446  km/h

26  David Moncoutié  Cofidis Credit Par Telephone01h 13' 03"+  00:05:36 =26,283  km/h

27  Javier Pascual  ibanesto.com01h 13' 04"+  00:05:37 =26,277  km/h

28  Francisco Mancebo  ibanesto.com01h 13' 07"+  00:05:40 =26,259  km/h

29  Felix Garcia Casas  Festina01h 13' 29"+  00:06:02 =26,128  km/h

30  Jens Voigt  Credit Agricole01h 13' 30"+  00:06:03 =26,122  km/h

31  Stéphane Goubert  Jean Delatour01h 13' 34"+  00:06:07 =26,099  km/h

32  Andrei Kivilev  Cofidis Credit Par Telephone01h 13' 34"+  00:06:07 =26,099  km/h

33  Marcos Serrano  O.N.C.E.-Eroski01h 13' 39"+  00:06:12 =26,069  km/h

34  Stive Vermaut  Lotto-Adecco01h 13' 45"+  00:06:18 =26,034  km/h

35  Ludovic Turpin  AG2R-Decathlon01h 13' 49"+  00:06:22 =26,010  km/h

36  Daniel Atienza  Cofidis Credit Par Telephone01h 13' 52"+  00:06:25 =25,993  km/h

37  Michele Bartoli  Mapei-Quick Step01h 13' 59"+  00:06:32 =25,952  km/h

38  Michael Boogerd  Rabobank01h 14' 02"+  00:06:35 =25,934  km/h

39  Marc Wauters  Rabobank01h 14' 05"+  00:06:38 =25,917  km/h

40  Anthony Morin  Credit Agricole01h 14' 08"+  00:06:41 =25,899  km/h

41  Laurent Roux  Jean Delatour01h 14' 08"+  00:06:41 =25,899  km/h

42  David Etxebarria  Euskaltel-Euskadi01h 14' 09"+  00:06:42 =25,893  km/h

43  Laurent Brochard  Jean Delatour01h 14' 11"+  00:06:44 =25,882  km/h

44  Nicolas Vogondy  Francaise Des Jeux01h 14' 18"+  00:06:51 =25,841  km/h

45  Bobby Julich  Credit Agricole01h 14' 18"+  00:06:51 =25,841  km/h

46  François Simon  Bonjour01h 14' 27"+  00:07:00 =25,789  km/h

47  Benoit Salmon  AG2R-Decathlon01h 14' 29"+  00:07:02 =25,778  km/h

48  Paolo Bettini  Mapei-Quick Step01h 14' 30"+  00:07:03 =25,772  km/h

49  Axel Merckx  Domo-Farm Frites01h 14' 30"+  00:07:03 =25,772  km/h

50  Leonardo Piepoli  ibanesto.com01h 14' 31"+  00:07:04 =25,766  km/h

51  Mario Aerts  Lotto-Adecco01h 14' 45"+  00:07:18 =25,686  km/h

52  Frédéric Bessy  Credit Agricole01h 14' 48"+  00:07:21 =25,668  km/h

53  Antonio Tauler  Kelme-Costa Blanca01h 14' 48"+  00:07:21 =25,668  km/h

54  Kurt Van De Wouwer  Lotto-Adecco01h 14' 55"+  00:07:28 =25,628  km/h

55  Jörg Jaksche  O.N.C.E.-Eroski01h 14' 55"+  00:07:28 =25,628  km/h

56  Sylvain Chavanel  Bonjour01h 14' 57"+  00:07:30 =25,617  km/h

57  Giuseppe Guerini  Deutsche Telekom01h 14' 58"+  00:07:31 =25,611  km/h

58  Marcelino Garcia  CSC-Tiscali01h 14' 58"+  00:07:31 =25,611  km/h

59  Emmanuel Magnien  Francaise Des Jeux01h 14' 59"+  00:07:32 =25,606  km/h

60  Michael Blaudzun  CSC-Tiscali01h 15' 03"+  00:07:36 =25,583  km/h

61  Haimar  Zubeldía  Euskaltel-Euskadi01h 15' 05"+  00:07:38 =25,572  km/h

62  Jakob Piil  CSC-Tiscali01h 15' 06"+  00:07:39 =25,566  km/h

63  Gilles Bouvard  Jean Delatour01h 15' 08"+  00:07:41 =25,555  km/h

64  Roberto Heras  US Postal Service01h 15' 16"+  00:07:49 =25,509  km/h

65  Eddy Seigneur  Jean Delatour01h 15' 19"+  00:07:52 =25,492  km/h

66  Guennadi Mikhailov  Lotto-Adecco01h 15' 21"+  00:07:54 =25,481  km/h

67  Paul Van Hyfte  Lotto-Adecco01h 15' 29"+  00:08:02 =25,436  km/h

68  Sébastien Demarbaix  AG2R-Decathlon01h 15' 31"+  00:08:04 =25,425  km/h

69  Maarten Den Bakker  Rabobank01h 15' 34"+  00:08:07 =25,408  km/h

70  Serge Baguet  Lotto-Adecco01h 15' 35"+  00:08:08 =25,402  km/h

71  Christophe Oriol  Jean Delatour01h 15' 39"+  00:08:12 =25,380  km/h

72  Daniel Schnider  Francaise Des Jeux01h 15' 43"+  00:08:16 =25,358  km/h

73  Grischa Niermann  Rabobank01h 15' 56"+  00:08:29 =25,285  km/h

74  Xavier Jan  BigMat-Auber 9301h 16' 00"+  00:08:33 =25,263  km/h

75  Raivis  Belohvoščiks  Lampre-Daikin01h 16' 07"+  00:08:40 =25,224  km/h

76  Massimiliano Lelli  Cofidis Credit Par Telephone01h 16' 08"+  00:08:41 =25,219  km/h

77  Victor Hugo Peña  US Postal Service01h 16' 09"+  00:08:42 =25,213  km/h

78  Jens Heppner  Deutsche Telekom01h 16' 11"+  00:08:44 =25,202  km/h

79  Nicki Sørensen  CSC-Tiscali01h 16' 17"+  00:08:50 =25,169  km/h

80  Jean-Cyril Robin  Bonjour01h 16' 19"+  00:08:52 =25,158  km/h

81  Thierry Gouvenou  BigMat-Auber 9301h 16' 27"+  00:09:00 =25,114  km/h

82  Franck Bouyer  Bonjour01h 16' 30"+  00:09:03 =25,098  km/h

83  Jon Odriozola  ibanesto.com01h 16' 36"+  00:09:09 =25,065  km/h

84  Guido Trentin  Cofidis Credit Par Telephone01h 16' 39"+  00:09:12 =25,049  km/h

85  José Ivan Gutierrez  O.N.C.E.-Eroski01h 16' 43"+  00:09:16 =25,027  km/h

86  Geert Verheyen  Rabobank01h 16' 46"+  00:09:19 =25,011  km/h

87  Viatcheslav Ekimov  US Postal Service01h 16' 49"+  00:09:22 =24,995  km/h

88  Erik Zabel  Deutsche Telekom01h 16' 54"+  00:09:27 =24,967  km/h

89  Udo Bölts  Deutsche Telekom01h 16' 54"+  00:09:27 =24,967  km/h

90  Gilles Maignan  AG2R-Decathlon01h 17' 02"+  00:09:35 =24,924  km/h

91  Marco Pinotti  Lampre-Daikin01h 17' 12"+  00:09:45 =24,870  km/h

92  Robert Hunter  Lampre-Daikin01h 17' 15"+  00:09:48 =24,854  km/h

93  Serguei Ivanov  Fassa Bortolo01h 17' 16"+  00:09:49 =24,849  km/h

94  Unai Etxebarria  Euskaltel-Euskadi01h 17' 23"+  00:09:56 =24,812  km/h

95  Max van Heeswijk  Domo-Farm Frites01h 17' 23"+  00:09:56 =24,812  km/h

96  Rik Verbrugghe  Lotto-Adecco01h 17' 25"+  00:09:58 =24,801  km/h

97  Oscar Pozzi  Fassa Bortolo01h 17' 25"+  00:09:58 =24,801  km/h

98  Bram de Groot  Rabobank01h 17' 27"+  00:10:00 =24,790  km/h

99  Daniele Nardello  Mapei-Quick Step01h 17' 31"+  00:10:04 =24,769  km/h

100  Jérôme Bernard  Jean Delatour01h 17' 32"+  00:10:05 =24,764  km/h

101  Matteo Frutti  Lampre-Daikin01h 17' 33"+  00:10:06 =24,758  km/h

102  Álvaro Gonzalez De Galdeano  O.N.C.E.-Eroski01h 17' 40"+  00:10:13 =24,721  km/h

103  José Angel Vidal  Kelme-Costa Blanca01h 17' 40"+  00:10:13 =24,721  km/h

104  Alessandro Petacchi  Fassa Bortolo01h 17' 40"+  00:10:13 =24,721  km/h

105  Christophe Mengin  Francaise Des Jeux01h 17' 42"+  00:10:15 =24,710  km/h

106  Matteo Tosatto  Fassa Bortolo01h 17' 47"+  00:10:20 =24,684  km/h

107  José-Luis Rubiera  US Postal Service01h 17' 48"+  00:10:21 =24,679  km/h

108  Thor Hushovd  Credit Agricole01h 17' 52"+  00:10:25 =24,658  km/h

109  Jimmy Casper  Francaise Des Jeux01h 17' 53"+  00:10:26 =24,652  km/h

110  Alexandre Botcharov  AG2R-Decathlon01h 17' 56"+  00:10:29 =24,636  km/h

111  Patrice Halgand  Jean Delatour01h 18' 02"+  00:10:35 =24,605  km/h

112  Stuart O'Grady  Credit Agricole01h 18' 05"+  00:10:38 =24,589  km/h

113  Eladio Jimenez  ibanesto.com01h 18' 06"+  00:10:39 =24,584  km/h

114  Angel Castresana  Euskaltel-Euskadi01h 18' 06"+  00:10:39 =24,584  km/h

115  Kevin Livingston  Deutsche Telekom01h 18' 09"+  00:10:42 =24,568  km/h

116  Stéphane  Berges  AG2R-Decathlon01h 18' 11"+  00:10:44 =24,558  km/h

117  Pascal Lino  Festina01h 18' 19"+  00:10:52 =24,516  km/h

118  Fred Rodriguez  Domo-Farm Frites01h 18' 20"+  00:10:53 =24,511  km/h

119  George Hincapie  US Postal Service01h 18' 21"+  00:10:54 =24,505  km/h

120  Luis Pérez Rodriguez  Festina01h 18' 25"+  00:10:58 =24,485  km/h

121  Marc Lotz  Rabobank01h 18' 31"+  00:11:04 =24,453  km/h

122  Christophe Capelle  BigMat-Auber 9301h 18' 32"+  00:11:05 =24,448  km/h

123  Marco Serpellini  Lampre-Daikin01h 18' 38"+  00:11:11 =24,417  km/h

124  Piotr Wadecki  Domo-Farm Frites01h 18' 40"+  00:11:13 =24,407  km/h

125  Christopher Jenner  Credit Agricole01h 18' 44"+  00:11:17 =24,386  km/h

126  Mikel Pradera  O.N.C.E.-Eroski01h 18' 47"+  00:11:20 =24,371  km/h

127  Ludo Dierckxsens  Lampre-Daikin01h 18' 49"+  00:11:22 =24,360  km/h

128  Tyler Hamilton  US Postal Service01h 18' 49"+  00:11:22 =24,360  km/h

129  Jacky Durand  Francaise Des Jeux01h 18' 53"+  00:11:26 =24,340  km/h

130  Erik Dekker  Rabobank01h 18' 57"+  00:11:30 =24,319  km/h

131  Nicolas Jalabert  CSC-Tiscali01h 19' 05"+  00:11:38 =24,278  km/h

132  Walter Bénéteau  Bonjour01h 19' 11"+  00:11:44 =24,248  km/h

133  Servais Knaven  Domo-Farm Frites01h 19' 11"+  00:11:44 =24,248  km/h

134  Steffen Kjærgaard  US Postal Service01h 19' 13"+  00:11:46 =24,237  km/h

135  Santiago Blanco  ibanesto.com01h 19' 14"+  00:11:47 =24,232  km/h

136  Stéphane Heulot  BigMat-Auber 9301h 19' 23"+  00:11:56 =24,186  km/h

137  Fabio Baldato  Fassa Bortolo01h 19' 24"+  00:11:57 =24,181  km/h

138  Damien Nazon  Bonjour01h 19' 35"+  00:12:08 =24,126  km/h

139  Christophe  Agnolutto  AG2R-Decathlon01h 19' 39"+  00:12:12 =24,105  km/h

140  Nico Mattan  Cofidis Credit Par Telephone01h 19' 46"+  00:12:19 =24,070  km/h

141  Sven Teutenberg  Festina01h 19' 53"+  00:12:26 =24,035  km/h

142  Alexei Sivakov  BigMat-Auber 9301h 19' 53"+  00:12:26 =24,035  km/h

143  Steffen Wesemann  Deutsche Telekom01h 20' 00"+  00:12:33 =24,000  km/h

144  Francisco Cerezo  CSC-Tiscali01h 20' 04"+  00:12:37 =23,980  km/h

145  Frédéric Guesdon  Francaise Des Jeux01h 20' 06"+  00:12:39 =23,970  km/h

146  Franck Renier  Bonjour01h 20' 07"+  00:12:40 =23,965  km/h

147  Javier Rodriguez  Kelme-Costa Blanca01h 20' 21"+  00:12:54 =23,895  km/h

148  Florent Brard  Festina01h 20' 30"+  00:13:03 =23,851  km/h

149  José Garcia Acosta  ibanesto.com01h 20' 32"+  00:13:05 =23,841  km/h

150  Johan Verstrepen  Lampre-Daikin01h 20' 33"+  00:13:06 =23,836  km/h

151  Rolf Sørensen  CSC-Tiscali01h 20' 42"+  00:13:15 =23,792  km/h

152  Marco Milesi  Domo-Farm Frites01h 20' 43"+  00:13:16 =23,787  km/h

153  Ján Svorada  Lampre-Daikin01h 20' 45"+  00:13:18 =23,777  km/h

154  Sébastien Talabardon  BigMat-Auber 9301h 21' 10"+  00:13:43 =23,655  km/h

155  Nicola Loda  Fassa Bortolo01h 21' 12"+  00:13:45 =23,645  km/h

156  Guillaume Auger  BigMat-Auber 9301h 21' 19"+  00:13:52 =23,611  km/h

157  Ludovic Auger  BigMat-Auber 9301h 21' 59"+  00:14:32 =23,419  km/h

158  Johan Museeuw  Domo-Farm Frites01h 22' 09"+  00:14:42 =23,372  km/h

159  Rubens Bertogliati  Lampre-Daikin01h 22' 31"+  00:15:04 =23,268  km/h

160  Sébastien Hinault  Credit Agricole01h 22' 54"+  00:15:27 =23,160  km/h

161  Enrico Cassani  Domo-Farm Frites01h 23' 38"+  00:16:11 =22,957  km/h

162  Olivier Perraudeau  Bonjour01h 23' 44"+  00:16:17 =22,930  km/h

163  Pascal Chanteur  Festina01h 23' 47"+  00:16:20 =22,916  km/h

164  Romāns Vainšteins  Domo-Farm Frites01h 24' 59"+  00:17:32 =22,593  km/h

165  Bart Leysen  Mapei-Quick Step01h 27' 11"+  00:19:44 =22,023  km/h

166  Davide Bramati  Mapei-Quick Step01h 29' 28"+  00:22:01 =21,461  km/h


Todays birthdays.

1879 • Henri Menez
1884 • Auguste Pierron
1890 • Lodewijk Budts
1899 • Fernand Braeckman
1905 • Alfred Hamerlinck
1919 • Briek Schotte
1920 • Pierre Baratin
1921 • Antonio Gelabert
1952 • Bruno Vicino
1973 • Giuseppe Di Grande
1973 • Guisvan Piovaccari
1992 • Alexey Lutsenko

 

Optimized for Chrome - Edge
and Opera browsers.